Tracking 22441 objects as of 1-Mar-2021
HD Live streaming from Space Station
objects crossing your sky now

SL-3 R/B

Track SL-3 R/B now!
10-day predictions


NORAD ID: 13121
Int'l Code: 1982-027B
Perigee: 538.9 km
Apogee: 553.5 km
Inclination: 81.2 °
Period: 95.4 minutes
Semi major axis: 6917 km
RCS: 5.6899 m2 (large)
Launch date: March 31, 1982
Source: Commonwealth of Independent States (former USSR) (CIS)
Launch site: PLESETSK MISSILE AND SPACE COMPLEX (PKMTR)

Note: This is a ROCKET BODY
aabbcc
Your satellite tracking list
Your tracking list is empty




NASA's NSSDC Master Catalog

Two Line Element Set (TLE):
1 13121U 82027B   21060.11279742  .00001020  00000-0  62899-4 0  9990
2 13121  81.1683   4.0831 0010499 262.5682  97.4349 15.09065324120988
Source of the keplerian elements: AFSPC